contact:dominique.lefevre@mio.osupytheas.fr, maurice.libes@osupytheas.fr
Project:EMSO Ligure-ouest http://www.emso-fr.org/EMSO-France
Sensor Aquadopp, line 13 Serial AQD14315 
DOI : "https://doi.org/10.17882/74513; https://doi.org/10.17882/83244" 
Title:EMSO Ligure Ouest : Data ligne ALBATROSS capteur AQUADOPP - deploiement 2021
Id,Date,Profondeur,Latitude,Longitude,X_East,Y_North,Z_Up,Amplitude_X,Amplitude_Y,Amplitude_Z,Batterie,SoundSpeed,Heading,Pitch,Roll,Pressure,Temperature,Speed,Direction
, , m, degrees North, degrees East, m.s-1, m.s-1,m.s-1, 1, 1, 1, Volt, m.s-1, degree, degree, degree, dbar, degree_C, m.s-1, degree
11,2022-02-23T21:30:00,2200.0,42.79,6.0312,-0.015,0.046,0.014,58.0,60.0,61.0,12.3,1504.3,344.1,-0.6,-0.5,2192.876,13.17,0.048,341.9
11,2022-02-23T22:00:00,2200.0,42.79,6.0312,-0.02,0.052,-0.001,58.0,61.0,63.0,12.3,1504.3,341.0,-0.5,-0.1,2192.894,13.17,0.055,339.0
11,2022-02-23T22:30:00,2200.0,42.79,6.0312,-0.01,0.051,-0.009,62.0,60.0,63.0,12.3,1504.3,347.9,-0.3,-0.4,2192.892,13.17,0.051,348.9
11,2022-02-23T23:00:00,2200.0,42.79,6.0312,-0.017,0.038,-0.01,59.0,62.0,63.0,12.3,1504.3,340.4,0.0,-0.4,2192.906,13.17,0.041,335.9
11,2022-02-23T23:30:00,2200.0,42.79,6.0312,-0.014,0.046,0.003,60.0,61.0,63.0,12.3,1504.3,339.7,-0.6,0.0,2192.948,13.17,0.048,343.1
11,2022-02-24T00:00:00,2200.0,42.79,6.0312,-0.02,0.057,0.003,56.0,61.0,63.0,12.3,1504.3,333.3,-0.6,-0.2,2192.907,13.17,0.06,340.7
11,2022-02-24T00:30:00,2200.0,42.79,6.0312,-0.022,0.056,0.008,58.0,63.0,62.0,12.3,1504.3,333.5,-0.5,-0.4,2192.947,13.17,0.06,338.6
11,2022-02-24T01:00:00,2200.0,42.79,6.0312,-0.015,0.047,0.0,59.0,60.0,64.0,12.3,1504.3,328.2,-0.5,-0.3,2192.929,13.17,0.049,342.3
11,2022-02-24T01:30:00,2200.0,42.79,6.0312,-0.017,0.052,0.007,60.0,62.0,62.0,12.3,1504.3,332.9,-0.5,-0.4,2192.967,13.17,0.054,341.9
11,2022-02-24T02:00:00,2200.0,42.79,6.0312,-0.025,0.053,0.006,62.0,64.0,64.0,12.3,1504.3,322.1,-0.6,0.0,2192.923,13.17,0.058,334.7
11,2022-02-24T02:30:00,2200.0,42.79,6.0312,-0.007,0.054,0.003,59.0,62.0,65.0,12.3,1504.3,329.3,-0.5,-0.2,2192.936,13.17,0.054,352.6
11,2022-02-24T03:00:00,2200.0,42.79,6.0312,-0.025,0.05,0.009,59.0,63.0,62.0,12.3,1504.3,317.0,-0.5,0.0,2192.921,13.17,0.055,333.4
11,2022-02-24T03:30:00,2200.0,42.79,6.0312,-0.019,0.041,0.006,60.0,61.0,66.0,12.2,1504.3,330.1,-0.6,-0.1,2192.943,13.17,0.045,335.1
11,2022-02-24T04:00:00,2200.0,42.79,6.0312,-0.015,0.03,0.005,59.0,61.0,64.0,12.3,1504.3,326.3,-0.7,-0.2,2192.957,13.17,0.033,333.4
11,2022-02-24T04:30:00,2200.0,42.79,6.0312,-0.025,0.032,0.002,57.0,62.0,60.0,12.3,1504.3,315.2,-0.7,-0.3,2192.945,13.17,0.04,322.0
11,2022-02-24T05:00:00,2200.0,42.79,6.0312,-0.032,0.035,-0.01,57.0,61.0,62.0,12.2,1504.3,318.6,-0.6,-0.3,2192.913,13.17,0.047,317.6
11,2022-02-24T05:30:00,2200.0,42.79,6.0312,-0.034,0.041,-0.003,54.0,56.0,57.0,12.3,1504.3,317.3,-0.9,-0.3,2192.884,13.17,0.053,320.3
11,2022-02-24T06:00:00,2200.0,42.79,6.0312,-0.045,0.063,0.015,53.0,56.0,57.0,12.3,1504.3,316.5,-0.7,0.0,2192.891,13.17,0.077,324.5
11,2022-02-24T06:30:00,2200.0,42.79,6.0312,-0.028,0.049,0.011,53.0,57.0,58.0,12.3,1504.3,316.3,-0.8,0.0,2192.907,13.17,0.056,330.3
11,2022-02-24T07:00:00,2200.0,42.79,6.0312,-0.023,0.049,0.006,56.0,58.0,58.0,12.3,1504.3,318.4,-0.7,-0.2,2192.935,13.17,0.054,334.9
11,2022-02-24T07:30:00,2200.0,42.79,6.0312,-0.021,0.053,0.007,54.0,55.0,57.0,12.3,1504.3,319.7,-1.0,-0.4,2192.895,13.17,0.057,338.4
11,2022-02-24T08:00:00,2200.0,42.79,6.0312,-0.041,0.034,0.013,56.0,57.0,57.0,12.3,1504.3,318.1,-0.4,-0.4,2192.908,13.17,0.053,309.7
11,2022-02-24T08:30:00,2200.0,42.79,6.0312,-0.018,0.047,0.011,53.0,55.0,58.0,12.3,1504.3,331.1,-0.2,-0.4,2192.915,13.17,0.05,339.0
11,2022-02-24T09:00:00,2200.0,42.79,6.0312,-0.027,0.041,0.012,53.0,54.0,58.0,12.3,1504.3,322.5,-0.8,-0.2,2192.952,13.17,0.049,326.6
11,2022-02-24T09:30:00,2200.0,42.79,6.0312,-0.023,0.049,0.015,57.0,59.0,59.0,12.3,1504.3,325.6,-0.7,-0.5,2192.945,13.17,0.054,334.9
11,2022-02-24T10:00:00,2200.0,42.79,6.0312,-0.034,0.038,0.002,56.0,59.0,60.0,12.3,1504.3,321.7,-0.7,-0.3,2192.969,13.17,0.05,318.2
11,2022-02-24T10:30:00,2200.0,42.79,6.0312,-0.024,0.045,-0.01,56.0,58.0,60.0,12.3,1504.3,319.1,-0.9,-0.3,2192.927,13.17,0.051,331.9
11,2022-02-24T11:00:00,2200.0,42.79,6.0312,-0.023,0.044,0.016,56.0,59.0,60.0,12.3,1504.3,321.0,-0.9,-0.3,2193.018,13.17,0.049,332.4
11,2022-02-24T11:30:00,2200.0,42.79,6.0312,-0.026,0.037,0.003,57.0,59.0,61.0,12.3,1504.3,311.8,-0.9,0.1,2192.979,13.17,0.045,324.9
11,2022-02-24T12:00:00,2200.0,42.79,6.0312,-0.037,0.038,0.021,55.0,59.0,60.0,12.3,1504.3,312.0,-0.7,-0.3,2192.971,13.17,0.053,315.8
11,2022-02-24T12:30:00,2200.0,42.79,6.0312,-0.033,0.038,0.006,57.0,60.0,61.0,12.3,1504.3,316.8,-0.7,-0.2,2192.992,13.17,0.05,319.0
11,2022-02-24T13:00:00,2200.0,42.79,6.0312,-0.029,0.044,0.012,54.0,58.0,60.0,12.3,1504.2,325.7,-0.8,-0.1,2192.929,13.16,0.052,326.6
11,2022-02-24T13:30:00,2200.0,42.79,6.0312,-0.039,0.047,0.01,51.0,56.0,57.0,12.3,1504.3,321.3,-0.8,-0.3,2192.913,13.17,0.061,320.3
11,2022-02-24T14:00:00,2200.0,42.79,6.0312,-0.027,0.058,0.028,52.0,55.0,55.0,12.3,1504.2,325.4,-0.8,0.0,2192.957,13.16,0.063,335.0
11,2022-02-24T14:30:00,2200.0,42.79,6.0312,-0.021,0.051,0.009,53.0,55.0,55.0,12.3,1504.2,323.7,-0.7,0.0,2192.968,13.16,0.055,337.6
11,2022-02-24T15:00:00,2200.0,42.79,6.0312,-0.029,0.055,-0.003,55.0,57.0,58.0,12.3,1504.2,316.6,-0.8,-0.2,2192.931,13.16,0.062,332.2
11,2022-02-24T15:30:00,2200.0,42.79,6.0312,-0.035,0.054,0.011,54.0,58.0,59.0,12.3,1504.2,318.7,-0.6,-0.3,2192.956,13.16,0.064,327.0
11,2022-02-24T16:00:00,2200.0,42.79,6.0312,-0.019,0.054,0.008,54.0,56.0,57.0,12.3,1504.2,324.3,-0.6,-0.2,2192.897,13.16,0.057,340.6
11,2022-02-24T16:30:00,2200.0,42.79,6.0312,-0.038,0.049,0.009,51.0,56.0,58.0,12.3,1504.2,325.0,-0.5,-0.2,2192.892,13.16,0.062,322.2
11,2022-02-24T17:00:00,2200.0,42.79,6.0312,-0.041,0.047,0.011,54.0,58.0,58.0,12.3,1504.2,316.5,-1.0,0.1,2192.869,13.16,0.062,318.9
11,2022-02-24T17:30:00,2200.0,42.79,6.0312,-0.027,0.042,0.009,55.0,57.0,60.0,12.3,1504.2,326.3,-1.0,0.0,2192.859,13.16,0.049,327.3
11,2022-02-24T18:00:00,2200.0,42.79,6.0312,-0.036,0.047,0.01,57.0,58.0,62.0,12.3,1504.2,318.2,-0.9,0.0,2192.859,13.16,0.059,322.5
11,2022-02-24T18:30:00,2200.0,42.79,6.0312,-0.035,0.035,0.01,56.0,60.0,61.0,12.3,1504.2,316.2,-0.7,-0.1,2192.874,13.16,0.049,315.0
11,2022-02-24T19:00:00,2200.0,42.79,6.0312,-0.037,0.036,-0.003,57.0,62.0,61.0,12.2,1504.2,318.2,-0.8,0.1,2192.87,13.16,0.051,314.2
11,2022-02-24T19:30:00,2200.0,42.79,6.0312,-0.023,0.052,0.027,57.0,62.0,60.0,12.3,1504.2,321.5,-0.6,-0.3,2192.845,13.16,0.056,336.1
11,2022-02-24T20:00:00,2200.0,42.79,6.0312,-0.016,0.047,0.008,60.0,61.0,63.0,12.3,1504.2,318.1,-0.8,-0.1,2192.853,13.16,0.049,341.2
11,2022-02-24T20:30:00,2200.0,42.79,6.0312,-0.02,0.034,-0.011,60.0,62.0,62.0,12.3,1504.2,322.2,-0.6,-0.4,2192.835,13.16,0.039,329.5
11,2022-02-24T21:00:00,2200.0,42.79,6.0312,-0.024,0.034,0.008,60.0,63.0,63.0,12.3,1504.2,318.1,-0.8,-0.2,2192.833,13.16,0.041,324.8
